Regional Weather Roundup
Issued by NWS Charleston, SC

Current Version | Previous Version | Graphics & Text | Print | Product List | Glossary On
Versions: 1 2 3 4 5 6 7 8 9 10 11 12 13 14 15 16 17 18 19 20 21 22 23 24 25 26 27 28 29 30 31 32 33 34 35 36 37 38 39 40 41 42 43 44 45 46 47 48 49 50
000 ASUS42 KCHS 220825 RWRCHS REGIONAL WEATHER ROUNDUP NATIONAL WEATHER SERVICE CHARLESTON SC 300 AM EST MON DEC 22 2014 NOTE: "FAIR" INDICATES FEW OR NO CLOUDS BELOW 12,000 FEET WITH NO SIGNIFICANT WEATHER AND/OR OBSTRUCTIONS TO VISIBILITY. NOT ALL STATIONS ARE QUALITY CONTROLLED BY THE NATIONAL WEATHER SERVICE. USE DATA WITH CAUTION...ESPECIALLY DEWPOINT OBSERVATIONS. SCZ027-030-031-034>040-042>050-220900- ...SOUTHEAST SOUTH CAROLINA... CITY SKY/WX TMP DP RH WIND PRES REMARKS N CHARLESTON CLOUDY 47 45 93 N7 30.07R WATERFRONT PRK NOT AVBL MOUNT PLEASANT CLOUDY 46 46 100 N5 30.05R FOG PINOPOLIS N/A 46 45 93 NE9 29.98F MONCKS CORNER N/A 46 45 93 CALM 30.07S FOG SUMMERVILLE CLOUDY 45 45 100 N9 30.05F FOG BEAUFORT MCAS CLOUDY 48 46 93 N8 30.05F BEAUFORT ARPT CLOUDY 48 48 100 N6 30.04F HILTON HEAD IS CLOUDY 48 48 100 NE6 30.04F FOG WALTERBORO LGT RAIN 46 N/A N/A CALM 30.07S ALLENDALE CLOUDY 46 46 100 N5 30.06S FOG ...SOUTHERN MIDLANDS AND PEE DEE... CITY SKY/WX TMP DP RH WIND PRES REMARKS GEORGETOWN NOT AVBL KINGSTREE NOT AVBL ORANGEBURG CLOUDY 45 42 89 NE8 30.07F BARNWELL CLOUDY 46 46 100 NE8 30.06F AIKEN CLOUDY 45 45 100 NE10 30.10F MANNING NOT AVBL COLUMBIA CLOUDY 46 43 89 E6 30.10S FOG SUMTER CLOUDY 43 41 93 NE7 30.09F FLORENCE CLOUDY 43 40 89 NE10 30.09F FOG MYRTLE BEACH CLOUDY 46 43 87 N8 30.07F N MYRTLE BEACH LGT RAIN 45 43 93 N7 30.07F $$ GAZ063-065-086>088-099>101-113>116-118-119-134>141-150-220900- ...SOUTHEAST GEORGIA... CITY SKY/WX TMP DP RH WIND PRES REMARKS SAVANNAH ARPT CLOUDY 48 46 93 NE6 30.04F HUNTER AAF DRIZZLE 48 48 100 N2 30.03S FORT STEWART CLOUDY 48 46 93 E9 30.00F STATESBORO LGT RAIN 47 47 100 NE5 30.05R SYLVANIA RAIN 47 47 100 NE3 30.06R CLAXTON LGT RAIN 46 46 100 N3 30.05R ...CSRA...CENTRAL AND FAR SOUTHEAST GEORGIA... CITY SKY/WX TMP DP RH WIND PRES REMARKS THOMSON CLOUDY 48 48 100 NE8 30.12S AUGUSTA-BUSH CLOUDY 47 45 93 NE6 30.08F AUGUSTA-DANIEL CLOUDY 48 46 93 N8 30.09S SWAINSBORO RAIN N/A N/A N/A NE5 30.05R VIDALIA DRIZZLE 46 46 100 NE6 30.03F EASTMAN CLOUDY 47 47 100 E5 30.07S FOG HAZLEHURST DRIZZLE 48 48 100 NW9 30.05R ALMA CLOUDY 48 47 96 CALM 30.03R FOG WAYCROSS LGT RAIN 53 53 99 CALM 30.02S JESUP LGT RAIN 52 50 93 CALM 30.02F BAXLEY RAIN 50 48 93 E5 30.01F BRUNSWICK CLOUDY 54 52 94 E5 30.03S SAINT SIMONS CLOUDY 54 53 97 CALM 30.04R $$ SCZ027-028-034-036>038-045-046-048>050-GAZ119-141-220900- ...LAKE AND SUPPLEMENTAL COASTAL OBSERVATIONS... STATION/POSITION TIME TEMP WIND PRES WAVE SWELL AIR SEA DIR/SP/G HT/PER HT/PER/DIR (UTC) (F) (DEG/KT/KT) (MB) (FT/S) (FT/S/D) UPR LAKE MARION NOT AVBL WINYAH BAY 0800 45 10/ 5 1017.0S LAKE MURRAY 0700 45 40/ 3/ 6 1019.0F ACE BASIN NERRS 0800 47 350/ 2 1017.0S FORT PULASKI 0800 50 55 340/ 5/ 7 1017.7R SAPELO ISLAND 0800 52 350/ 5 1017.0R $$ ANZ835-935-AMZ111-154-330-350-352-354-370-450-454-472-220900- ...C-MAN AND BUOY OBSERVATIONS... STATION/POSITION TIME TEMP WIND PRES WAVE SWELL AIR SEA DIR/SP/G HT/PER HT/PER/DIR (UTC) (F) (DEG/KT/KT) (MB) (FT/S) (FT/S/D) BUOY 41004 0800 65 73 20/ 17/ 21 1015.3F 7/ 7 3/ 9 BUOY 41008 0800 58 58 80/ 10/ 14 1015.9F 4/ 7 3/ 80/ 7 FOLLY BEACH CMAN 0800 49 10/ 12/ 14 1017.7F CAPERS NEARSHORE 0700 50 40/ 16/ 17 N/A FRIPP NEARSHORE NOT AVBL STATION/POSITION TIME TEMP WIND PRES WAVE SWELL AIR SEA DIR/SP/G HT/PER HT/PER/DIR (UTC) (F) (DEG/KT/KT) (MB) (FT/S) (FT/S/D) 5E ST. MARYS GA 0800 61 N/A 3/ 8 FRYING PAN BUOY 0800 62 69 50/ 19/ 21 1017.1F 7/ 8 2/200/12 BUOY 41025 0800 63 1019.1F 5/ 7 CAPE LOOKOUT NC 0800 50 30/ 21/ 24 1018.8F BUOY 41002 0734 72 72 120/ 6/ 8 1018.0F 5/ 7 5/ 70/ 7 BUOY 41010 0800 75 77 190/ 14/ 17 1017.1R 3/ 7 3/ 30/ 7 ST AUGUSTINE FL 0800 63 210/ 7/ 9 1017.3F $$

USA.gov is the U.S. government's official web portal to all federal, state and local government web resources and services.